This demonstration page uses our WeatherBlox Daily Observations layout. Learn more.

Left ArrowRight Arrow

Hourly Observations for October 11, 2015

Temp ( °F °C ) Dew Point ( °F °C ) Humidity (%) Winds ( mph kmh ) Pressure ( in mb ) Visibility ( mi km ) Precip ( " mm )
12:53 am 00:53 Cloudy 62 16.7 58 14.4 86 86 NNW 3 6 29.99 1016 10 16 0.00 0.00
1:21 am 01:21 Cloudy 62 16.7 57 13.9 84 84 N 3 6 30.00 1016 10 16 0.00 0.00
1:53 am 01:53 Cloudy 62 16.7 58 14.4 86 86 Calm 29.98 1015 10 16 0.00 0.00
2:34 am 02:34 Cloudy 63 17 55 13 77 77 NNE 8 13 30.00 1016 10 16 0.00 0.00
2:53 am 02:53 Partly Cloudy 60 15.6 55 12.8 84 84 NNE 6 9 29.98 1015 10 16 0.00 0.00
3:53 am 03:53 Mostly Clear 59 15 54 12.2 83 83 NE 3 6 29.98 1015 10 16 0.00 0.00
4:53 am 04:53 Partly Cloudy 57 13.9 55 12.8 93 93 Calm 29.99 1016 10 16 0.00 0.00
5:11 am 05:11 Mostly Cloudy 57 13.9 55 12.8 93 93 Calm 30.00 1016 10 16 0.00 0.00
5:53 am 05:53 Cloudy 58 14.4 55 12.8 90 90 Calm 30.00 1016 10 16 0.00 0.00
6:45 am 06:45 Cloudy 59 15 56 13.3 90 90 Calm 30.03 1017 10 16 0.00 0.00
6:53 am 06:53 Cloudy 59 15 56 13.3 90 90 Calm 30.01 1016 10 16 0.00 0.00
7:53 am 07:53 Mostly Cloudy 59 15 55 12.8 87 87 NE 3 6 30.00 1016 10 16 0.00 0.00
8:53 am 08:53 Sunny 61 16.1 55 12.8 81 81 NE 8 13 30.02 1017 10 16 0.00 0.00
9:53 am 09:53 Mostly Sunny 63 17.2 54 12.2 73 73 E 13 20 30.02 1017 10 16 0.00 0.00
10:53 am 10:53 Partly Cloudy 65 18.3 54 12.2 68 68 ENE 13 20 30.03 1017 10 16 0.00 0.00
11:53 am 11:53 Mostly Sunny 67 19.4 55 12.8 66 66 ENE 7 11 30.02 1017 10 16 0.00 0.00
12:53 pm 12:53 Mostly Cloudy 69 20.6 56 13.3 63 63 E 5 7 30.00 1016 10 16 0.00 0.00
1:00 pm 13:00 Mostly Cloudy 70 21 55 13 60 60 E 7 11 30.00 1016 10 16 0.00 0.00
1:53 pm 13:53 Cloudy 71 21.7 57 13.9 61 61 NNW 7 11 29.98 1015 10 16 0.00 0.00
2:53 pm 14:53 Cloudy 72 22.2 55 12.8 55 55 Calm 29.95 1014 10 16 0.00 0.00
3:53 pm 15:53 Mostly Cloudy 73 22.8 56 13.3 55 55 VRB 3 6 29.92 1013 10 16 0.00 0.00
4:53 pm 16:53 Mostly Sunny 71 21.7 54 12.2 55 55 S 3 6 29.91 1013 10 16 0.00 0.00
5:53 pm 17:53 Mostly Sunny 71 21.7 55 12.8 57 57 SSE 6 9 29.90 1013 10 16 0.00 0.00
6:53 pm 18:53 Mostly Sunny 69 20.6 57 13.9 66 66 SE 5 7 29.89 1012 10 16 0.00 0.00
7:53 pm 19:53 Clear 65 18.3 58 14.4 78 78 Calm 29.91 1013 10 16 0.00 0.00
8:53 pm 20:53 Clear 62 16.7 58 14.4 86 86 Calm 29.92 1013 10 16 0.00 0.00
9:53 pm 21:53 Mostly Cloudy 61 16.1 57 13.9 87 87 Calm 29.93 1014 10 16 0.00 0.00
10:53 pm 22:53 Mostly Cloudy 61 16.1 58 14.4 90 90 W 3 6 29.94 1014 10 16 0.00 0.00
11:53 pm 23:53 Clear 61 16.1 57 13.9 87 87 SSE 3 6 29.94 1014 10 16 0.00 0.00

Powered by AerisWeather